Wind_Speed
31 29 27 18 15 10 9 4 3 1 4 8 7 7 7 6 6 11 16 15 16 14 13 13 12 11 10 10 10 10 10 11 11 11 12 13 16 18 19 18 19 21 22 25
36 38 35 26 22 17 14 11 7 5 2 0 3 3 4 6 9 11 9 7 6 7 8 8 8 8 7 7 6 6 7 10 12 13 14 15 17 18 20 22 23 23 25 26
39 47 39 33 31 25 21 19 14 11 10 9 7 6 6 8 10 10 8 3 2 1 3 1 4 5 6 6 5 7 8 11 14 16 18 18 20 21 24 27 28 28 28 28
46 50 42 37 37 36 33 28 21 18 16 12 13 13 10 9 14 12 10 8 7 7 5 3 5 6 8 8 9 10 13 16 19 20 21 24 26 26 28 30 32 33 33 33
53 55 47 41 44 45 44 36 29 25 22 20 18 16 13 15 14 12 10 11 11 9 9 8 9 8 9 9 12 14 16 19 22 23 25 27 30 31 31 33 36 36 35 35
61 63 54 48 48 46 49 38 33 31 27 24 27 23 21 19 20 15 14 14 16 15 13 11 11 13 15 17 19 20 21 24 26 28 30 32 32 33 35 35 37 37 36 38
67 66 62 57 53 49 46 45 35 32 31 30 29 30 26 23 23 21 19 19 18 18 17 16 18 21 23 24 26 27 27 29 31 32 33 35 35 36 39 41 40 41 41 43
74 73 69 63 59 55 51 50 44 38 35 38 37 36 28 29 28 29 27 23 23 24 23 24 25 26 29 31 31 32 33 33 35 36 37 38 41 42 42 40 41 44 46 48
81 78 77 73 68 65 58 53 49 46 39 40 40 40 32 32 35 33 32 31 29 30 29 30 30 32 35 36 37 37 37 38 37 39 40 43 45 44 43 43 44 46 48 48
88 86 83 81 78 71 66 62 59 50 44 42 44 45 42 37 38 38 37 36 34 35 35 34 34 36 37 38 38 38 40 41 41 42 43 43 45 46 47 47 47 49 52 54
96 93 89 87 83 76 71 69 64 55 49 46 46 46 50 45 44 41 43 41 40 40 39 38 39 41 41 41 43 42 42 43 43 44 45 46 47 49 50 52 54 57 57 57
101 99 96 88 83 85 80 76 70 64 54 52 52 51 57 54 46 45 45 45 46 45 42 42 43 45 45 45 45 45 46 46 44 45 47 49 51 52 54 55 57 57 57 49
106 102 98 96 93 88 82 75 71 68 64 57 54 51 57 57 53 49 49 47 50 49 46 46 48 48 49 49 48 49 49 49 48 50 51 53 54 54 55 55 54 56 48 46
105 105 101 97 90 85 85 80 75 71 68 62 53 53 62 59 56 54 53 52 53 52 52 51 51 52 52 53 51 52 54 54 54 54 55 55 53 49 46 50 58 54 47 54
96 103 104 98 94 94 89 85 81 75 66 64 57 60 64 62 60 59 57 55 55 55 57 56 56 56 55 56 57 58 59 58 58 57 56 53 49 47 46 50 51 48 50 62
91 96 104 101 99 99 94 90 88 82 75 71 67 62 64 66 63 60 57 55 57 60 61 61 59 58 58 59 62 63 63 64 64 62 57 52 51 51 52 49 47 43 44 50
87 90 99 100 103 102 105 97 93 86 80 74 71 65 71 68 65 63 62 60 60 62 63 63 62 62 61 63 66 68 69 67 64 59 56 54 55 58 54 52 46 43 45 52
82 85 93 100 104 110 94 92 91 88 83 83 77 73 75 73 71 68 64 63 64 66 68 69 68 67 64 67 70 72 71 71 67 61 57 57 58 59 59 57 53 48 47 51
77 75 80 93 105 101 96 96 94 92 85 84 80 78 79 76 75 71 68 70 72 73 74 75 74 69 69 71 73 74 73 69 63 59 58 61 63 63 65 61 58 51 51 59
69 69 76 80 95 99 95 96 96 94 90 86 83 83 81 79 77 75 74 75 75 77 78 77 75 72 71 72 74 74 72 66 62 64 63 67 70 70 68 64 60 53 54 58
63 65 71 75 87 93 96 96 96 97 87 85 84 81 80 79 79 79 80 79 78 79 80 79 78 74 74 72 72 69 67 66 64 65 67 71 73 74 72 70 61 52 48 54
62 62 68 72 79 86 93 96 95 92 90 89 84 78 80 79 81 81 80 80 79 77 79 79 78 75 72 69 68 65 66 67 69 71 73 74 77 71 70 61 60 55 50 51
56 58 64 73 78 83 90 93 93 91 92 89 83 84 82 80 79 77 77 75 75 74 75 77 76 74 73 70 68 67 69 71 72 73 75 76 75 68 65 57 62 56 58 60
55 56 59 60 54 72 85 87 91 90 90 86 83 83 80 77 77 76 75 72 72 75 76 76 78 77 75 72 70 71 75 75 76 76 72 71 69 69 65 60 61 61 62 64
50 58 64 60 47 45 51 68 87 85 86 84 82 82 80 80 78 78 77 74 74 77 76 77 80 80 77 75 72 73 76 76 75 73 70 71 73 71 63 59 59 56 55 57
61 67 66 70 65 57 47 52 67 79 86 83 81 81 79 79 78 79 77 76 77 79 78 81 80 79 78 76 78 78 78 75 73 74 77 73 72 68 63 63 63 62 67 70
Wind_Direction
255 261 258 259 263 263 276 257 185 327 77 83 91 103 122 153 152 124 115 108 109 100 87 84 81 74 70 67 62 51 39 33 32 20 9 360 355 352 351 347 346 344 340 337
247 251 254 254 252 249 246 253 248 216 241 153 134 150 152 177 170 147 131 116 114 97 80 61 60 53 49 53 44 28 13 10 8 2 352 351 347 344 344 342 342 338 339 335
242 246 247 250 255 246 243 240 239 242 219 217 221 222 228 216 202 177 174 221 238 183 7 349 6 12 2 350 345 348 348 347 343 341 338 334 331 333 338 337 334 333 332 331
244 244 244 244 248 255 247 239 232 234 237 223 225 222 217 223 213 218 218 232 232 253 289 318 317 317 315 317 318 323 324 327 329 329 328 326 327 331 333 330 328 329 331 330
243 244 243 238 238 246 250 240 232 228 233 231 232 229 236 233 223 219 227 250 257 265 273 286 290 290 285 292 298 305 313 318 317 318 320 322 324 326 325 325 325 326 329 327
238 243 242 238 236 237 249 244 238 236 233 236 239 232 225 230 245 231 228 234 258 263 268 270 272 276 283 291 297 302 310 312 314 316 317 318 319 322 324 324 324 325 326 325
236 242 244 243 242 241 245 254 246 241 238 240 235 239 234 231 239 242 235 232 237 251 260 262 270 279 284 291 295 298 304 308 310 311 312 314 318 321 321 323 326 325 324 324
230 235 242 243 246 245 238 241 243 240 232 238 237 240 233 243 244 241 246 241 245 252 258 265 271 277 284 288 293 297 300 302 303 305 309 314 318 321 325 324 323 322 322 323
229 233 239 239 238 241 241 242 238 237 233 234 248 248 240 240 250 252 252 255 253 256 262 268 274 280 285 289 291 293 295 297 302 306 310 315 318 319 321 322 319 317 317 317
228 230 234 237 238 237 241 239 238 239 233 231 236 246 249 243 249 253 258 259 260 262 265 269 276 280 283 286 289 292 295 298 302 307 311 314 315 316 318 316 315 315 315 312
227 227 231 234 237 237 238 242 245 243 238 232 234 240 249 246 247 251 257 259 261 262 264 270 274 274 278 282 286 290 293 298 302 306 307 309 312 313 314 315 316 315 316 317
226 226 228 232 234 236 235 238 241 241 237 235 233 234 242 251 249 248 252 259 262 265 268 270 271 274 278 281 285 289 292 294 298 300 303 306 308 310 311 312 312 315 321 320
226 226 225 228 230 233 236 239 244 246 245 246 244 239 242 248 253 254 255 256 262 265 268 271 273 278 280 283 286 288 290 293 297 301 304 304 304 306 310 314 315 319 321 310
225 225 226 227 229 230 233 235 238 243 244 248 247 238 242 244 249 252 255 258 259 264 266 269 273 276 279 281 283 287 290 294 297 298 299 300 303 309 315 317 318 320 310 306
227 225 225 226 227 230 230 231 233 234 237 242 238 237 240 244 247 249 251 255 259 262 264 266 269 273 276 280 284 287 287 290 294 296 299 303 307 311 316 319 320 313 312 294
230 226 225 223 227 229 230 230 232 231 230 233 234 239 242 246 249 250 251 253 257 260 263 266 269 273 276 279 283 285 289 292 295 299 303 303 305 311 315 315 314 304 295 294
233 229 225 222 225 227 228 228 232 231 230 231 233 235 240 245 249 251 252 254 257 260 263 267 270 273 276 280 283 286 289 291 294 300 299 302 308 310 312 311 311 292 281 275
234 231 226 222 223 227 229 231 233 234 233 233 231 232 238 242 245 249 253 257 260 262 265 267 270 273 278 281 284 286 289 291 296 296 297 302 306 308 306 306 305 295 277 269
235 233 232 223 225 225 227 229 231 234 235 235 235 234 237 240 244 248 251 255 258 261 264 267 270 274 276 279 282 283 286 292 293 291 297 300 301 303 303 302 299 287 270 269
234 232 230 227 226 224 225 228 230 231 231 234 236 235 238 240 243 246 248 251 256 260 263 265 269 271 273 276 279 283 287 289 290 292 295 298 300 303 302 299 297 283 272 267
231 225 227 225 223 225 224 226 229 232 231 234 236 237 239 242 244 246 248 251 254 257 261 265 268 271 273 275 279 281 282 284 286 290 293 294 295 299 299 296 290 278 268 271
223 224 224 224 221 221 225 227 229 231 232 232 234 237 240 242 245 247 249 252 255 259 261 266 269 271 272 273 274 276 278 284 288 291 294 295 295 294 295 289 285 273 264 261
218 224 223 222 224 222 223 226 227 230 232 233 235 237 240 242 244 247 250 253 256 260 262 265 267 269 269 271 273 277 281 283 286 292 293 293 293 293 292 282 285 267 263 259
219 215 211 214 224 230 225 228 229 230 233 234 235 237 240 243 245 248 251 254 257 259 260 264 267 269 270 272 276 279 284 288 289 290 293 294 290 292 290 282 283 272 266 272
204 204 203 205 200 217 227 232 231 232 234 235 237 239 242 244 247 249 250 252 255 259 263 264 266 269 274 279 282 282 284 287 289 290 289 288 289 290 287 284 284 276 277 280
199 203 202 200 200 211 218 231 232 235 234 235 236 239 240 243 247 249 250 253 255 256 259 262 266 271 275 279 281 284 286 288 289 288 289 291 292 293 288 288 288 283 278 281
Height
10966 10966 10966 10970 10972 10973 10973 10973 10973 10974 10973 10972 10973 10974 10975 10978 10978 10979 10978 10979 10978 10979 10980 10980 10980 10980 10979 10978 10977 10977 10978 10978 10977 10977 10976 10975 10973 10971 10969 10967 10964 10961 10958 10955
10960 10958 10959 10964 10967 10970 10970 10971 10971 10970 10971 10972 10973 10974 10976 10977 10978 10978 10978 10979 10979 10979 10979 10979 10979 10979 10979 10978 10977 10977 10977 10977 10976 10975 10975 10973 10971 10969 10966 10963 10960 10957 10954 10950
10950 10946 10953 10959 10959 10963 10965 10967 10968 10969 10969 10971 10973 10973 10974 10975 10977 10976 10977 10977 10977 10977 10977 10977 10977 10977 10977 10977 10976 10976 10976 10975 10974 10973 10971 10969 10967 10964 10960 10957 10954 10951 10949 10945
10938 10935 10945 10951 10953 10952 10957 10960 10964 10965 10966 10969 10970 10971 10971 10972 10973 10973 10973 10974 10975 10975 10975 10974 10974 10974 10974 10974 10974 10974 10973 10972 10970 10968 10967 10965 10962 10957 10954 10951 10948 10945 10942 10939
10927 10923 10934 10942 10943 10941 10941 10952 10957 10961 10962 10965 10966 10967 10968 10969 10968 10967 10968 10969 10970 10970 10970 10971 10971 10972 10972 10971 10971 10970 10970 10968 10966 10965 10963 10960 10958 10954 10951 10948 10944 10941 10938 10934
10911 10909 10921 10930 10932 10933 10928 10942 10950 10954 10957 10960 10960 10963 10964 10965 10964 10964 10965 10965 10965 10965 10966 10967 10968 10969 10969 10969 10967 10966 10964 10962 10961 10959 10958 10956 10953 10950 10946 10944 10940 10937 10933 10929
10897 10900 10906 10914 10920 10926 10928 10930 10941 10947 10951 10951 10953 10955 10959 10959 10959 10960 10961 10961 10961 10963 10964 10964 10964 10964 10964 10963 10962 10960 10959 10957 10955 10953 10953 10951 10948 10945 10941 10937 10934 10930 10926 10922
10880 10884 10890 10901 10909 10915 10919 10921 10929 10935 10939 10938 10943 10946 10952 10954 10953 10953 10955 10956 10956 10957 10958 10958 10959 10959 10957 10955 10955 10953 10952 10951 10949 10948 10946 10945 10943 10940 10937 10933 10928 10923 10918 10912
10860 10870 10872 10879 10888 10895 10906 10914 10918 10922 10929 10931 10930 10933 10943 10945 10943 10945 10948 10949 10950 10950 10952 10952 10952 10951 10949 10947 10948 10946 10945 10944 10943 10941 10939 10937 10935 10932 10928 10925 10921 10915 10910 10906
10836 10847 10850 10857 10866 10880 10891 10896 10901 10912 10921 10926 10925 10924 10928 10935 10934 10936 10937 10939 10941 10942 10943 10944 10944 10942 10942 10939 10939 10938 10936 10935 10934 10933 10931 10930 10927 10922 10918 10915 10910 10905 10900 10894
10808 10822 10829 10835 10851 10867 10876 10881 10890 10901 10910 10917 10919 10919 10914 10921 10924 10927 10927 10928 10930 10932 10935 10935 10934 10933 10932 10932 10931 10930 10929 10927 10926 10925 10923 10921 10918 10913 10908 10903 10898 10894 10889 10881
10782 10795 10806 10825 10836 10842 10854 10864 10874 10884 10897 10903 10907 10911 10903 10905 10912 10917 10918 10918 10919 10921 10924 10924 10922 10922 10923 10923 10922 10920 10919 10918 10919 10918 10915 10911 10909 10904 10900 10895 10890 10883 10877 10869
10756 10775 10791 10798 10807 10821 10841 10857 10866 10873 10880 10891 10897 10902 10897 10896 10900 10905 10906 10909 10907 10908 10911 10912 10910 10911 10911 10911 10911 10910 10908 10908 10908 10907 10906 10902 10900 10896 10890 10885 10878 10869 10861 10854
10733 10754 10772 10785 10804 10811 10817 10834 10846 10855 10867 10876 10890 10890 10882 10887 10891 10893 10895 10897 10898 10900 10901 10902 10902 10901 10900 10899 10900 10899 10897 10897 10897 10897 10897 10894 10891 10888 10884 10875 10864 10858 10850 10842
10712 10736 10749 10771 10779 10784 10798 10810 10823 10835 10854 10859 10873 10872 10868 10874 10879 10882 10886 10890 10890 10890 10889 10891 10891 10891 10891 10889 10888 10888 10887 10888 10887 10886 10884 10882 10879 10875 10873 10863 10856 10847 10838 10834
10697 10714 10727 10750 10759 10763 10776 10790 10801 10814 10827 10838 10849 10859 10860 10859 10865 10871 10876 10880 10878 10876 10875 10876 10879 10879 10879 10878 10876 10874 10873 10872 10871 10871 10870 10867 10864 10863 10861 10859 10854 10846 10838 10833
10678 10693 10709 10732 10735 10741 10743 10766 10780 10798 10811 10823 10834 10847 10840 10845 10851 10855 10859 10863 10865 10863 10861 10862 10863 10865 10867 10867 10864 10861 10858 10859 10860 10859 10854 10852 10852 10850 10849 10846 10845 10839 10832 10825
10658 10672 10687 10707 10713 10711 10757 10765 10773 10783 10794 10800 10813 10824 10825 10830 10834 10838 10846 10850 10849 10847 10845 10846 10849 10852 10856 10853 10850 10846 10846 10845 10846 10843 10842 10841 10840 10838 10835 10834 10833 10829 10820 10812
10642 10658 10673 10689 10692 10715 10737 10742 10752 10762 10781 10787 10800 10807 10807 10814 10818 10826 10833 10832 10830 10831 10831 10831 10833 10840 10842 10839 10837 10833 10833 10835 10832 10832 10832 10827 10824 10825 10821 10818 10816 10811 10805 10797
10628 10644 10653 10672 10683 10701 10718 10725 10733 10742 10755 10771 10781 10788 10793 10799 10804 10811 10814 10815 10817 10814 10814 10816 10821 10827 10828 10826 10824 10822 10821 10822 10820 10818 10818 10815 10810 10805 10804 10801 10797 10790 10783 10778
10615 10627 10636 10651 10665 10684 10697 10706 10714 10721 10750 10754 10762 10774 10780 10784 10789 10793 10794 10799 10801 10801 10801 10804 10808 10813 10813 10814 10811 10812 10810 10809 10809 10807 10804 10800 10795 10788 10785 10782 10778 10774 10765 10759
10603 10613 10626 10638 10652 10665 10677 10689 10697 10712 10726 10734 10745 10757 10760 10767 10771 10775 10779 10781 10785 10789 10788 10789 10790 10793 10797 10798 10796 10799 10799 10796 10793 10791 10788 10781 10775 10774 10769 10762 10759 10754 10747 10740
10602 10608 10617 10629 10639 10650 10660 10669 10683 10695 10704 10718 10733 10736 10741 10750 10756 10760 10763 10769 10773 10774 10774 10772 10772 10775 10775 10779 10783 10785 10783 10781 10780 10775 10770 10764 10757 10752 10750 10747 10742 10737 10729 10722
10584 10594 10609 10620 10636 10639 10650 10657 10667 10677 10687 10704 10716 10721 10728 10735 10741 10748 10752 10757 10757 10755 10755 10757 10755 10756 10760 10766 10769 10768 10764 10762 10759 10757 10751 10745 10739 10733 10730 10727 10722 10716 10710 10707
10575 10586 10599 10609 10623 10628 10634 10643 10653 10663 10674 10687 10699 10707 10716 10721 10727 10731 10735 10740 10741 10740 10741 10740 10737 10739 10746 10750 10751 10750 10747 10745 10741 10736 10732 10727 10722 10717 10711 10705 10701 10696 10690 10688
10569 10579 10590 10602 10608 10615 10626 10631 10639 10649 10660 10671 10683 10689 10697 10703 10708 10713 10719 10722 10723 10722 10722 10720 10725 10729 10732 10731 10730 10729 10726 10723 10718 10715 10712 10707 10702 10696 10691 10687 10683 10678 10673 10668